Username
Password
 
Info Terbaru :
  

Jackpot hanya dapat di beli di awal sebelum periode tersebut berjalan dan jika berhasil maka anda dapat melihat di sisi kiri bawah atau kiri atas akan terdapat notifikasi bahwa jackpot anda berhasil di beli.

Jika anda membeli jackpot di tengah permainan maka pembelian jackpot akan berlaku untuk periode selanjutnya.

Jackpot Winner Ceme

Jackpot dilihat dari gabungan kartu pemain dengan kartu bandar. Bandar harus membeli jackpot sebanyak jumlah player yang sedang duduk. Sebagai contoh bila terdapat 3 pemain duduk bermain, dan bandar memutuskan untuk membeli jackpot Rp 1.000, maka pada periode tersebut bandar akan membeli jackpot sebanyak 3xRp1.000 = Rp3.000.

Jackpot bukanlah suatu keharusan untuk dibeli, namun kami memberikan suatu fitur tambahan untuk member tercinta dari www.maindepok.com.

Terdapat tiga pilihan harga jackpot yang bisa anda beli yaitu :100,500 dan 1000 rupiah.

Hadiah dari Multi jackpot system www.maindepok.com


  • Murni Kecil x 50 harga jackpot yang anda beli.

    (contoh:anda membeli 1000 maka:1000 X 50 = 50.000)

  • Murni Besar x 50 harga jackpot yang anda beli

    (contoh:anda membeli 1000 maka:1000 X 50 = 50.000)

  • BALAK x 200 harga jackpot yang anda beli

    (contoh:anda membeli 1000 maka:1000 X 200 = 200.000)

  • ENAM DEWA x 6666 harga jackpot yang anda beli

    (contoh:anda membeli 1000 maka:1000 X 6666 = 6.666.000)


Demikian adalah penjelasan dari Multi Jackpot www.maindepok.com terima kasih dan selamat bermain salam hoki dari kami


Jackpot Winner

TOP ENAM DEWA
No. Tanggal Nama Price Win
1 27/03 02:08 ANJAR1234 murni enam 3,333,000
2 27/03 01:28 NED04 murni enam 666,600
3 27/03 01:23 LTID123 murni enam 6,666,000
4 27/03 01:23 ERIKMUL88 murni enam 3,333,000
5 27/03 01:09 BAMBUT77 murni enam 6,666,000
TOP BALAK
No. Tanggal Nama Price Win
1 27/03 02:23 ARFAN04 balak 200,000
2 27/03 02:23 JAWIR85 balak 20,000
3 27/03 02:23 MOODS17 balak 20,000
4 27/03 02:23 JEJEN888 balak 20,000
5 27/03 02:22 TIMPUGKAN balak 20,000
LATEST JACKPOT
No. Tanggal Nama Price Win
1 27/03 02:24 NUR_WD murni kecil 50,000
2 27/03 02:23 ARFAN04 balak 200,000
3 27/03 02:23 OMBIL88 murni kecil 5,000
4 27/03 02:23 BUNDAEXA13 murni kecil 5,000
5 27/03 02:23 JAWIR85 balak 20,000
6 27/03 02:23 MOODS17 balak 20,000
7 27/03 02:23 PENDI1991 murni kecil 25,000
8 27/03 02:23 INTANPUTRI murni kecil 50,000
9 27/03 02:23 AGUNG8459 murni kecil 5,000
10 27/03 02:23 OMPOLARAB murni besar 25,000
11 27/03 02:23 RIO23 murni besar 50,000
12 27/03 02:23 MEILAU murni besar 25,000
13 27/03 02:23 RIO23 murni besar 50,000
14 27/03 02:23 MSTEV002 murni besar 25,000
15 27/03 02:23 ARON008 murni besar 5,000
16 27/03 02:23 FORZA82 murni besar 50,000
17 27/03 02:23 DIKIWAKAS murni besar 5,000
18 27/03 02:23 BROYAN11 murni kecil 50,000
19 27/03 02:23 MANDAN01 murni kecil 5,000
20 27/03 02:23 MUSANG363 murni kecil 5,000
21 27/03 02:23 SNAPPER murni besar 50,000
22 27/03 02:23 WAHAB2019 murni besar 50,000
23 27/03 02:23 JEJEN888 balak 20,000
24 27/03 02:23 JOHNNYRICO murni besar 5,000
25 27/03 02:23 THECOP murni kecil 5,000
26 27/03 02:23 LUMINATI murni kecil 5,000
27 27/03 02:23 AVANZA18 murni besar 25,000
28 27/03 02:23 AZIZ29 murni besar 25,000
29 27/03 02:23 MARSATOASA murni kecil 25,000
30 27/03 02:22 TIMPUGKAN balak 20,000
31 27/03 02:22 ALKID15 balak 20,000
32 27/03 02:22 ADEJP153 murni besar 5,000
33 27/03 02:22 GENDROPRAY murni besar 25,000
34 27/03 02:22 TOTENG123 murni besar 50,000
35 27/03 02:22 TEMA123 murni besar 50,000
36 27/03 02:22 BUJURGEDE1 murni besar 25,000
37 27/03 02:22 YUGEN9 murni besar 50,000
38 27/03 02:22 APSIREGAR murni besar 50,000
39 27/03 02:22 JPUHUYYY28 murni besar 50,000
40 27/03 02:22 SILABAN13 balak 100,000
41 27/03 02:22 A27IF69927 murni kecil 50,000
42 27/03 02:22 ARFAN04 murni besar 50,000
43 27/03 02:22 BOS76 murni kecil 50,000
44 27/03 02:22 NUR0106 murni kecil 50,000
45 27/03 02:22 DIYAN14 murni besar 5,000
46 27/03 02:21 YUGEN9 balak 200,000
47 27/03 02:21 YUGEN9 murni kecil 50,000
48 27/03 02:21 BAHRI77PO murni kecil 25,000
49 27/03 02:21 D36EC31A balak 20,000
50 27/03 02:21 RAUKABIS murni kecil 50,000


Situs Poker Online
Dewapoker.com Hadir untuk semua pecinta permainan kartu poker online yang khususnya berada di asia. Dengan system teknology baru dan server kecepatan tinggi akan membuat permainan poker anda lebih seru dan menarik bersama teman2x anda maupun saingan anda. Cukup lakukan login dan langsung bermain tanpa download. Dewapoker.com dengan encrypsi server yang tinggi akan menjamin keamanan data para member.
Terms & Conditions Link Alternatif Cara Bermain Video Dewapoker
© Copyright 2019 Dewa Poker. All right reserved.